Regional Weather Roundup
Issued by NWS

Home | Current Version | Previous Version | Text Only | Print | Product List | Glossary On
Versions: 1 2 3 4 5 6 7 8 9 10 11 12 13 14 15 16 17 18 19 20 21 22 23 24 25 26 27 28 29 30 31 32 33 34 35 36 37 38 39 40 41 42 43 44 45 46 47 48 49 50
000
ASUS44 KOUN 031000
RWROK

WEATHER ROUNDUP FOR OKLAHOMA
NATIONAL WEATHER SERVICE NORMAN OK
400 AM CST SAT DEC 03 2016

NOTE: "FAIR" INDICATES FEW OR NO CLOUDS BELOW 12,000 FEET WITH NO
      SIGNIFICANT WEATHER AND/OR OBSTRUCTIONS TO VISIBILITY.

OKZ001>007-009>012-014-015-017-031100-
NORTHWEST OKLAHOMA AND THE PANHANDLE

CITY           SKY/WX    TMP DP  RH WIND       PRES   REMARKS
GAGE           LGT RAIN  37  35  92 NE8       30.18F WCI  31
GUYMON         LGT SNOW  32  32 100 N8        30.20F FOG     WCI  25
$$

OKZ016-021>023-033>039-044-045-031100-
SOUTHWEST OKLAHOMA

CITY           SKY/WX    TMP DP  RH WIND       PRES   REMARKS
LAWTON/REGL    LGT RAIN  47  44  90 NE8       30.17S
LAWTON/FT SILL LGT RAIN  46  46 100 NE7       30.15S
FREDERICK      CLOUDY    46  44  93 NE10      30.12F
CLINTON        CLOUDY    43  41  93 NE9       30.17F FOG
HOBART         CLOUDY    45  43  93 E7        30.16F
ALTUS AFB      LGT RAIN  45  42  91 NE7       30.15F
$$

OKZ018>020-024>031-031100-
CENTRAL OKLAHOMA

CITY           SKY/WX    TMP DP  RH WIND       PRES   REMARKS
OKLAHOMA CITY  LGT RAIN  46  44  93 E6        30.20S
OKC/WILEY POST CLOUDY    45  43  93 N6        30.21R FOG
OKC/TINKER AFB CLOUDY    45  43  91 E6        30.18S
STILLWATER     LGT RAIN  43  37  79 N12       30.21F
GUTHRIE        CLOUDY    44  41  89 NE3       30.20F
$$

OKZ008-013-054>072-031100-
NORTHEAST OKLAHOMA

CITY           SKY/WX    TMP DP  RH WIND       PRES   REMARKS
TULSA          CLOUDY    44  34  67 NW3       30.22F
TULSA/JONES    CLOUDY    47  32  56 NE3       30.23F
PONCA CITY     CLOUDY    43  34  70 NE3       30.23F
BARTLESVILLE   CLOUDY    45  30  55 N3        30.25
MUSKOGEE       CLOUDY    48  39  71 S3        30.25S
$$

OKZ032-040>043-046>053-073>077-031100-
SOUTH CENTRAL/SOUTHEAST OKLAHOMA

CITY           SKY/WX    TMP DP  RH WIND       PRES   REMARKS
MCALESTER      LGT RAIN  48  41  76 N6        30.21F
$$





USA.gov is the U.S. government's official web portal to all federal, state and local government web resources and services.